CAPE
58 55 34 11 41 47 56 70 62 53 28 60 74 38 33 74 118 20 21 2 6 5 0 0 2 11 9 0 2 0 13 6 27 29 8 0 0 0 0 0 26 0 4 0 0 0 0 0 0 0 0 0 0 0
51 51 40 36 46 54 55 63 59 57 84 25 13 60 77 50 76 16 0 42 5 23 0 0 0 0 0 0 15 0 1 10 73 11 39 31 17 17 0 0 19 56 15 0 0 0 0 0 0 0 0 0 0 0
36 34 7 30 55 60 57 57 44 50 73 87 19 59 86 56 55 18 1 0 6 14 0 0 0 0 0 0 0 0 0 13 5 0 111 48 45 35 46 0 0 32 0 12 0 0 0 0 0 0 0 0 0 0
4 2 6 23 47 49 53 54 43 51 55 108 29 18 70 72 75 42 14 2 5 0 0 0 0 0 0 0 0 0 0 0 0 20 149 56 11 25 16 1 2 28 0 0 0 0 0 0 0 0 0 0 0 0
3 2 8 8 37 48 45 60 49 54 51 63 66 63 55 46 32 9 1 0 0 0 0 0 0 0 0 0 0 0 0 0 0 0 12 73 3 25 0 10 1 12 12 19 0 0 0 0 0 0 0 0 0 0
37 8 9 20 23 40 38 63 81 76 66 16 30 54 42 42 27 0 0 0 0 0 0 0 0 0 0 0 0 0 0 0 1 47 22 42 18 17 8 88 26 6 0 0 0 0 0 0 0 0 0 0 0 0
48 31 14 7 24 45 42 34 34 64 64 34 22 10 19 11 0 0 0 0 3 0 7 3 0 2 7 0 0 0 19 35 44 53 17 2 8 21 1 3 0 0 0 0 0 17 182 82 1 0 0 0 0 0
32 26 28 7 30 46 30 0 0 17 38 45 56 9 15 0 0 0 0 21 0 16 26 7 1 3 45 39 47 34 53 54 37 51 63 132 27 16 2 0 0 0 0 0 0 0 151 110 32 4 0 0 0 0
36 33 28 18 16 15 6 0 0 1 2 7 13 0 0 0 0 0 3 9 0 0 13 21 30 4 1 20 24 20 42 12 0 39 49 2 13 2 0 0 0 0 0 1 11 40 174 143 23 2 6 3 47 17
36 37 17 7 5 2 0 0 0 0 0 0 0 0 0 0 0 0 0 0 0 0 4 7 10 8 2 10 3 26 1 25 17 0 105 9 0 0 0 0 0 0 0 0 2 44 41 0 2 0 11 9 98 94
14 30 4 1 0 0 0 0 0 0 0 0 0 0 0 0 0 0 0 0 0 0 0 9 6 25 9 7 1 10 0 0 1 1 53 4 0 2 0 0 0 0 0 0 0 0 0 0 9 1 0 0 0 0
3 1 2 0 0 0 0 0 5 0 0 0 2 4 1 0 0 0 0 0 0 0 0 5 13 24 8 17 6 0 2 0 4 12 6 6 10 6 29 22 3 0 0 0 0 0 0 0 0 0 0 0 0 0
4 0 0 0 0 0 0 1 6 5 0 0 7 0 0 0 0 1 7 0 0 0 0 0 3 14 3 0 0 3 1 1 12 0 9 13 0 0 1 0 0 0 0 0 0 0 0 0 0 0 0 0 0 0
2 0 0 0 0 0 0 3 0 0 0 0 0 0 0 0 1 60 22 46 0 0 0 0 0 1 0 0 3 5 6 0 0 0 5 4 1 0 0 0 0 0 0 0 0 0 0 0 0 0 0 0 0 0
1 0 0 0 0 0 1 0 0 0 0 0 0 0 1 5 7 0 0 0 0 0 0 0 0 0 0 0 4 3 0 0 2 6 5 0 0 0 0 0 0 2 0 0 0 0 0 0 0 0 0 0 0 0
1 0 0 0 0 0 0 0 0 0 0 0 0 0 0 3 1 0 0 0 0 0 0 0 0 0 0 0 4 10 4 4 2 7 1 0 0 0 0 2 3 0 0 0 0 0 0 0 0 0 0 0 0 0
1 0 0 0 0 0 0 0 0 0 0 0 1 0 0 0 0 0 0 0 0 0 0 0 0 1 0 2 5 6 5 6 3 0 0 0 0 0 0 0 0 0 0 0 0 0 0 0 0 0 0 0 0 0
0 0 0 0 0 0 0 0 0 0 0 0 0 0 0 0 0 0 0 0 0 0 0 0 0 0 2 1 0 5 8 0 1 0 4 0 0 0 0 0 0 0 0 0 0 0 0 0 0 0 0 0 0 0
0 0 0 0 0 0 0 0 0 0 0 0 0 0 0 0 0 0 0 0 0 0 0 0 0 0 0 0 0 0 0 0 0 7 0 0 0 0 0 0 0 0 0 0 0 0 0 0 0 0 0 0 0 0
0 0 0 0 0 0 0 0 0 0 0 0 0 0 0 0 0 0 0 0 0 0 0 0 0 0 0 0 0 0 0 0 0 1 11 0 0 0 0 0 0 0 0 0 0 0 0 0 0 0 0 0 0 0
0 0 0 0 0 0 0 0 0 0 0 0 0 0 0 0 0 0 0 0 0 0 0 0 0 0 0 0 0 0 0 0 0 0 0 1 0 0 0 0 0 0 0 0 0 0 0 0 0 0 0 0 0 0
0 0 0 0 0 0 0 0 0 0 0 0 0 0 0 0 0 0 0 0 0 0 0 0 0 0 0 0 0 0 0 0 0 0 0 0 0 0 0 0 0 0 0 0 0 0 0 0 0 0 0 0 0 0
0 0 0 0 0 0 0 0 0 0 0 0 0 0 0 0 0 0 0 0 0 0 0 0 0 0 0 0 0 0 0 0 0 0 0 0 0 0 0 0 0 0 0 0 0 0 0 0 0 0 0 0 0 0
0 0 0 0 0 0 0 0 0 0 0 0 0 0 0 0 0 0 0 0 0 0 0 0 0 0 0 0 0 0 0 0 0 0 0 0 0 0 0 0 0 0 0 0 0 0 0 0 0 0 0 0 0 0
0 0 0 0 0 0 0 0 0 0 0 0 0 0 0 0 0 0 0 0 0 0 0 0 0 0 0 0 0 0 0 0 0 0 0 0 0 0 0 0 0 0 0 0 0 0 0 0 0 0 0 0 0 0
0 0 0 0 0 0 0 0 0 0 0 0 0 0 0 0 0 4 29 0 0 0 0 0 0 0 0 0 0 0 0 0 0 0 0 0 0 0 0 0 0 0 0 0 0 0 0 0 0 0 0 0 0 0
0 0 0 0 0 0 0 0 0 0 1 2 0 0 0 0 0 0 0 0 0 0 0 1 0 0 0 0 0 0 0 0 0 0 0 0 0 0 0 0 0 0 0 0 0 0 0 0 0 0 0 0 0 0
0 0 0 0 0 0 0 0 0 0 0 0 0 0 0 0 0 0 0 0 0 0 0 0 0 0 0 0 1 0 0 0 0 0 0 0 0 0 0 0 0 0 0 0 0 0 0 0 0 0 0 0 0 0
0 0 0 0 0 0 0 1 0 0 0 0 0 0 0 0 0 0 0 0 0 0 2 0 0 0 0 0 0 0 0 0 0 0 0 0 0 0 0 0 0 0 0 0 0 0 0 0 0 0 0 0 0 0
0 0 0 0 0 0 0 0 0 0 0 0 0 0 0 0 0 0 0 0 0 0 0 0 0 0 0 0 0 0 0 0 0 0 0 0 1 0 0 0 0 0 0 0 0 0 0 0 0 0 0 0 0 0
0 0 0 0 0 0 0 0 0 0 0 0 0 0 0 0 0 0 0 0 0 0 0 0 0 0 0 0 0 0 0 0 0 0 0 0 0 0 1 0 0 0 1 1 0 0 0 0 0 0 0 0 0 0
0 0 0 0 0 0 0 0 0 0 0 0 0 0 0 0 0 0 0 0 0 0 0 0 0 0 0 0 0 0 0 0 1 0 0 0 0 0 0 0 0 1 0 0 0 0 0 0 0 0 0 0 0 0
0 0 0 0 0 0 0 0 0 0 0 0 0 0 0 0 0 0 0 0 0 0 0 0 0 0 0 0 0 0 0 0 0 0 0 0 0 0 0 0 0 0 1 1 1 0 0 0 0 0 0 0 0 0
CIN
0 0 0 0 0 0 0 0 0 -6 -2 -4 -7 -4 -4 -7 0 -6 -11 -20 -7 -1 0 0 -1 -5 -42 -58 -57 0 -75 -44 -72 -9 -10 0 0 0 0 0 -39 0 -30 0 0 0 0 0 0 0 0 0 0 0
0 0 0 0 0 0 0 0 0 0 0 -3 -7 -2 -1 -4 0 -18 -12 -11 -3 -1 -1 0 0 0 0 0 -52 0 -61 -68 -35 -45 -43 -15 -37 -74 0 0 -74 -14 -63 0 0 0 0 0 0 0 0 0 0 0
0 0 0 0 0 0 0 0 0 0 -2 -5 -8 -2 -2 -2 -1 -22 -32 0 -11 0 0 0 0 0 0 0 0 0 0 -93 -59 0 -49 -82 -28 -106 -22 0 0 -94 0 -41 -1 0 0 0 0 0 0 0 0 0
0 0 0 0 0 0 0 0 0 0 -2 0 -4 -8 -4 -5 -3 -16 -14 -7 -8 0 0 0 0 0 0 0 0 0 0 0 0 -49 -4 -22 -53 -82 -125 -15 -37 -44 -27 0 0 0 0 0 0 0 0 0 0 0
0 0 0 0 0 0 0 0 -1 -1 0 0 -1 -4 -2 -1 -6 -24 -8 0 0 0 0 0 0 0 0 0 0 0 0 0 0 -2 -10 0 -17 -61 0 -127 -110 -146 -38 -36 0 0 0 0 0 0 0 0 0 0
0 0 0 0 0 0 0 0 0 0 0 -1 0 0 -6 -3 -10 -1 0 0 0 0 0 0 0 0 0 0 0 0 0 0 -8 -2 -12 -29 -13 -21 -7 -3 -84 -220 0 0 0 0 0 0 0 0 0 0 0 0
0 0 0 0 0 0 0 -1 -1 -4 -6 -4 -5 -8 -5 -7 -6 0 -2 -23 -5 0 0 0 0 -5 -19 0 0 0 -6 -1 -8 -6 -16 -4 -19 -17 -7 0 0 0 0 0 0 -130 -266 -387 -71 0 0 0 0 0
0 0 0 0 0 0 0 -4 -9 -10 -10 -22 -9 -13 -16 -21 0 0 0 -18 0 -2 -1 0 0 0 -11 -9 -2 -15 0 -1 -4 -14 -8 -5 -32 0 0 0 0 0 0 0 -12 0 -198 -514 -587 -479 0 0 0 0
0 0 0 0 0 0 0 0 0 -4 -5 -20 -14 0 0 0 0 0 -1 -1 0 0 0 0 0 0 -2 -6 -2 0 -3 -2 0 -6 -16 -20 0 0 0 0 0 0 0 -59 -405 -455 -416 -355 -429 -347 -445 -481 -369 -395
0 0 0 0 0 0 0 0 0 0 0 0 0 0 0 0 0 0 0 0 0 0 0 -1 -2 0 0 0 0 0 -8 -10 -5 -2 -2 -6 0 0 0 0 0 0 0 0 -252 -280 -337 -12 -338 0 -362 -430 -323 -326
-1 0 0 0 0 0 0 0 0 0 0 0 0 0 0 0 0 -1 0 0 0 0 0 0 0 0 -1 0 0 0 -7 0 0 -1 -12 -5 0 0 0 0 0 0 0 0 0 0 0 0 -409 -346 -48 0 0 0
0 0 -3 0 0 0 0 0 0 0 0 -1 0 -1 0 0 0 0 0 0 0 0 0 0 0 0 0 0 0 0 -1 0 0 0 0 0 0 -1 -1 0 -11 0 0 0 0 0 0 0 0 0 0 0 0 0
0 0 0 0 0 0 0 0 0 0 0 0 -7 -4 0 0 0 0 0 0 0 0 0 0 0 0 -2 -1 -1 0 0 0 0 0 -2 -1 0 0 -18 0 0 0 0 0 0 0 0 0 0 0 0 0 0 0
0 0 0 0 0 0 0 0 0 0 0 0 0 -1 0 0 0 -2 0 0 0 0 0 0 0 0 0 0 0 0 0 -1 0 0 0 0 0 0 0 0 0 0 0 0 0 0 0 0 0 0 0 0 0 0
0 0 0 0 0 0 0 0 0 0 0 -2 0 0 0 0 -1 0 0 0 0 0 0 0 0 0 0 0 0 0 0 0 0 0 0 0 0 0 0 0 0 -194 0 0 0 0 0 0 0 0 0 0 0 0
0 0 0 0 0 0 0 0 0 0 0 0 0 0 0 0 0 0 0 0 0 0 0 0 0 0 0 0 0 0 0 0 0 0 0 0 0 0 0 -67 -234 0 0 0 0 0 0 0 0 0 0 0 0 0
0 0 0 0 0 0 0 0 0 0 0 0 -11 0 0 0 0 0 0 0 0 0 0 0 0 0 0 0 0 0 0 0 0 0 0 0 0 0 0 0 0 0 0 0 0 0 0 0 0 0 0 0 0 0
0 0 0 0 0 0 0 0 0 0 0 0 0 0 0 0 0 0 0 0 0 0 0 0 0 0 0 0 0 0 0 0 -4 0 -9 0 0 0 0 0 0 0 0 0 0 0 0 0 0 0 0 0 0 0
0 0 0 0 0 0 0 0 0 0 0 0 0 0 0 0 0 0 0 0 0 0 0 0 0 0 0 0 0 0 0 0 0 -23 0 -6 0 0 0 0 0 0 0 0 0 0 0 0 0 0 0 0 0 0
0 0 0 0 0 0 0 0 0 0 0 0 0 0 0 0 0 0 0 0 0 0 0 0 0 0 0 0 0 0 0 0 0 -27 -19 -8 -2 0 0 0 0 0 0 0 0 0 0 0 0 0 0 0 0 0
0 0 0 0 0 0 0 0 0 0 0 0 0 0 0 0 0 0 0 0 0 0 0 0 0 0 0 0 0 0 0 0 0 -1 -1 -48 0 0 0 0 0 0 0 0 0 0 0 0 0 0 0 0 0 0
0 0 0 0 0 0 0 0 0 0 0 0 0 0 0 0 0 0 0 0 0 0 0 0 0 0 0 0 0 0 0 0 0 0 0 0 0 0 0 0 0 0 0 0 0 0 0 0 0 0 0 0 0 0
0 0 0 0 0 0 0 0 0 0 0 0 0 0 0 0 0 0 0 0 0 0 0 0 0 0 0 0 0 0 0 0 0 0 0 0 0 0 0 0 0 0 0 0 0 0 0 0 0 0 0 0 0 0
0 0 0 0 0 0 0 0 0 0 0 0 0 0 0 0 0 0 0 0 0 0 0 0 0 0 0 0 0 0 0 0 0 0 0 0 0 0 0 0 0 0 0 0 0 0 0 0 0 0 0 0 0 0
0 0 0 0 0 0 0 0 0 0 0 0 0 0 0 0 0 0 0 0 0 0 0 0 0 0 0 0 0 0 0 0 0 0 0 0 0 0 0 0 0 0 0 0 0 0 0 0 0 0 0 0 0 0
0 0 0 0 0 0 0 0 0 0 0 0 0 0 0 0 0 0 -1 0 0 0 0 0 0 0 0 0 0 0 0 0 0 0 0 0 0 0 0 0 0 0 0 0 0 0 0 0 0 0 0 0 0 0
0 0 0 0 0 0 0 0 0 -8 -5 -1 0 -2 0 0 0 0 0 0 0 0 0 0 0 0 0 0 0 0 0 0 0 0 0 0 0 0 0 0 0 0 0 0 0 -56 0 0 0 0 0 0 0 0
0 0 0 0 0 0 0 0 -1 0 0 0 0 0 0 0 0 0 0 0 0 0 0 0 0 0 0 0 0 0 0 0 0 0 0 0 0 0 0 0 0 0 0 0 0 0 0 0 0 0 0 0 0 0
0 0 0 0 0 0 0 -2 0 0 0 0 0 0 0 0 0 0 0 0 0 0 -4 0 0 0 0 0 0 0 0 0 0 0 0 0 0 0 0 0 0 0 0 0 0 0 0 0 0 0 0 0 0 0
0 0 0 0 0 0 0 0 0 0 0 0 0 0 0 0 0 0 0 0 0 0 0 0 0 0 0 0 0 0 0 0 0 0 0 0 0 0 0 0 0 0 0 0 0 0 0 0 0 0 0 0 0 0
0 0 0 0 0 0 0 0 0 0 0 0 0 0 0 0 0 0 0 0 0 0 0 0 0 0 0 0 0 0 0 0 0 0 0 0 0 0 0 0 0 0 0 0 0 0 0 0 0 0 0 0 0 0
0 0 0 0 0 0 0 0 0 0 0 0 0 0 0 0 0 0 0 0 0 0 0 0 0 0 0 0 0 0 0 0 0 0 0 0 0 0 0 0 0 0 0 0 0 0 0 0 0 0 0 0 0 0
0 0 0 0 0 0 0 0 0 0 0 0 0 0 0 0 0 0 0 0 0 0 0 0 0 0 0 0 0 0 0 0 0 0 0 0 0 0 0 0 0 0 0 0 0 0 0 0 0 0 0 0 0 0
Wind_Speed
24 23 23 25 26 27 27 25 25 21 15 17 10 5 2 9 14 4 1 1 2 1 3 4 3 1 1 2 3 2 3 2 0 5 5 5 4 10 6 7 10 9 8 6 2 3 8 6 5 13 9 3 6 8
24 23 20 22 25 25 26 24 25 24 22 9 10 5 3 8 10 5 1 1 2 1 3 3 4 4 2 2 3 1 1 1 2 3 3 3 3 2 11 14 3 11 8 9 10 7 4 14 12 13 7 7 6 8
25 22 21 22 23 24 25 25 24 22 23 16 1 4 5 10 9 3 2 2 2 2 4 2 6 3 1 5 4 3 2 1 1 1 2 1 4 2 3 14 5 3 3 5 4 6 6 12 3 4 4 5 5 4
21 20 21 22 22 23 25 24 23 20 21 17 5 2 4 5 5 3 2 2 1 1 1 4 1 4 2 3 6 5 4 2 0 2 2 1 2 0 3 4 7 7 8 7 2 2 4 4 8 6 6 3 6 6
20 20 21 21 21 22 22 22 22 17 18 21 12 11 7 10 7 4 3 2 1 2 2 5 7 4 5 4 7 6 5 2 1 2 3 3 2 2 2 2 5 4 7 8 9 9 8 8 15 8 11 8 8 8
18 19 20 21 21 21 20 19 20 18 17 17 17 10 8 7 3 2 3 3 2 1 1 4 4 4 3 3 6 6 4 3 2 2 3 3 2 2 1 3 8 5 7 6 6 14 8 4 14 14 10 10 9 8
20 18 19 20 21 21 19 18 18 19 18 13 11 10 9 6 2 2 1 3 4 1 1 4 5 3 2 3 2 2 3 3 3 3 4 4 4 5 4 6 10 15 17 18 10 10 3 5 7 13 11 12 9 7
18 18 18 19 19 20 18 18 19 20 19 16 9 7 8 7 3 2 2 5 3 2 1 3 4 4 3 3 2 4 3 3 3 3 2 3 4 4 7 12 13 14 17 13 12 7 8 10 8 7 5 7 9 6
17 18 17 17 18 18 18 18 19 21 20 14 9 4 3 3 2 3 7 4 2 1 3 2 2 3 1 2 3 3 2 3 3 4 4 4 3 6 7 3 4 9 9 15 8 6 10 16 10 9 9 6 7 6
17 17 17 17 17 18 17 17 19 21 18 10 4 4 3 2 10 7 3 3 3 2 2 3 3 3 1 1 1 2 3 3 3 5 3 4 4 4 6 9 9 12 16 8 7 11 11 12 9 8 8 6 7 7
22 18 17 17 17 17 17 17 17 18 8 5 4 2 4 10 3 2 3 2 2 3 1 3 4 4 1 2 3 2 2 3 3 3 3 3 2 1 9 15 13 12 12 5 5 6 4 8 8 8 7 5 5 6
22 21 18 16 16 17 18 18 17 4 1 4 4 4 3 3 2 2 2 3 0 3 3 3 4 2 3 3 2 2 2 2 4 2 3 2 3 2 6 12 8 7 4 9 3 5 6 7 9 10 7 7 6 6
23 21 21 19 17 18 21 21 18 11 4 1 1 2 4 4 4 3 4 4 4 4 3 5 4 3 3 2 2 3 3 3 2 1 2 3 3 5 10 6 6 3 2 3 6 8 7 9 8 10 9 6 7 7
24 23 22 20 17 19 23 20 16 4 3 3 4 6 4 4 4 3 4 5 4 4 7 6 3 2 2 3 1 4 3 3 4 2 4 4 6 4 8 7 3 8 8 8 8 8 9 9 8 8 8 7 6 6
25 26 22 12 19 21 21 18 7 2 3 4 4 5 3 3 4 5 6 4 5 4 3 3 2 0 2 2 3 4 5 3 3 3 2 6 7 6 8 8 10 7 6 8 6 9 9 8 9 8 7 6 6 6
26 20 4 15 24 22 20 7 3 2 3 3 3 3 3 3 6 4 3 5 3 4 2 0 2 5 4 2 3 4 6 5 4 3 3 7 12 10 10 9 9 6 7 8 8 8 8 9 7 6 6 7 6 5
22 4 10 23 25 20 10 3 3 4 3 4 3 2 3 4 5 6 2 4 3 4 3 3 5 3 4 3 4 5 3 1 3 6 8 10 9 8 9 10 7 6 7 7 7 8 7 7 7 9 8 5 6 5
4 7 20 23 17 5 4 4 3 3 4 2 3 5 3 3 4 5 4 3 4 3 3 3 2 5 4 6 4 5 4 4 5 6 5 6 8 6 5 7 8 8 8 8 7 6 6 8 9 5 6 6 3 5
13 15 20 18 4 2 3 5 4 3 3 3 4 4 4 5 4 5 5 4 2 1 2 3 5 3 3 2 4 4 3 3 2 2 4 5 8 6 6 7 6 7 7 6 6 5 5 7 4 4 4 4 4 3
16 14 9 6 2 3 4 4 2 2 3 4 3 5 4 4 5 4 4 5 3 3 6 4 2 3 2 4 2 3 2 0 2 1 3 6 6 7 6 5 4 3 4 5 5 6 4 4 4 4 4 4 4 4
9 5 9 3 3 4 2 2 3 2 3 3 3 4 4 4 4 5 5 5 5 3 4 3 4 4 5 4 3 2 1 1 2 1 2 1 4 4 4 4 4 4 4 4 5 4 6 4 3 3 4 4 3 3
4 9 3 4 3 4 2 1 2 3 1 3 4 3 3 3 4 4 4 6 3 3 3 4 6 5 5 6 6 5 4 3 4 3 4 4 4 5 4 4 4 4 5 4 4 4 3 3 3 4 4 4 4 4
7 4 3 4 4 5 5 3 3 4 2 5 5 4 4 4 2 2 4 2 2 3 5 4 8 5 5 4 4 5 6 5 4 4 4 4 3 4 5 6 4 4 5 4 3 3 3 3 4 3 3 4 4 4
3 3 4 2 2 4 4 5 2 4 4 5 4 5 5 3 4 4 3 3 4 4 7 11 7 5 5 6 5 4 5 4 3 5 5 5 4 5 4 4 4 4 3 2 3 3 3 2 2 3 3 4 3 3
4 6 5 6 2 4 4 6 5 4 3 3 5 4 5 4 3 3 1 4 4 4 6 6 6 5 4 4 2 4 6 4 4 4 5 3 2 3 4 4 5 5 5 4 4 2 2 1 1 2 2 2 3 2
2 5 3 1 3 3 2 3 3 3 3 4 4 4 4 3 4 3 1 3 3 3 7 7 5 5 4 3 5 5 5 4 2 5 4 5 5 3 3 4 4 5 7 4 3 2 1 1 2 3 2 2 3 2
2 3 2 1 2 1 2 2 1 2 3 3 3 4 3 3 1 3 3 2 2 3 4 4 3 2 2 4 4 5 6 5 6 6 3 5 7 6 5 4 5 4 7 6 5 5 4 3 1 1 1 1 2 3
4 2 1 3 1 1 1 1 0 1 3 3 2 2 3 4 4 3 3 2 2 4 3 2 3 3 4 5 5 6 4 5 3 3 2 3 5 7 8 6 5 8 5 5 5 5 4 3 2 1 2 2 1 2
3 2 2 2 2 1 3 4 3 3 2 2 2 3 4 3 2 2 3 2 3 6 6 1 2 3 4 4 6 7 8 8 7 8 7 5 6 6 10 8 8 7 7 7 6 4 4 3 1 1 1 2 2 3
3 4 3 2 3 3 4 5 4 4 3 4 3 3 3 3 3 1 3 2 3 3 2 3 3 2 2 2 4 8 8 7 7 6 5 5 5 6 7 7 8 8 7 8 7 7 6 3 2 3 3 3 3 3
3 3 2 2 4 5 5 3 2 1 2 4 4 5 6 4 2 1 1 2 3 3 5 5 5 4 3 4 3 3 5 6 6 8 5 3 4 5 6 6 6 6 6 7 8 8 7 6 5 4 5 5 6 4
4 6 5 4 5 4 1 3 3 3 4 3 7 4 3 1 4 3 2 1 1 2 3 6 4 2 4 4 5 5 6 5 6 6 7 4 5 6 6 6 5 6 8 8 8 9 10 10 8 9 8 8 7 8
1 2 2 0 3 3 3 2 3 4 3 3 7 5 5 5 6 2 2 2 2 4 5 5 5 5 6 6 5 3 4 5 6 6 6 5 4 5 6 6 5 7 8 7 7 8 10 12 10 11 11 11 10 9
Wind_Direction
337 338 341 343 342 344 351 351 353 353 348 0 358 326 254 188 180 146 85 238 148 255 231 257 276 216 100 90 137 217 54 303 74 176 176 223 217 210 262 214 172 159 147 185 112 166 240 167 101 156 201 216 195 186
338 340 347 343 343 346 350 350 351 352 358 322 345 2 350 153 164 116 111 39 25 272 269 306 279 260 255 174 152 111 197 219 226 175 200 183 291 288 200 236 230 192 182 184 186 202 224 181 170 209 161 162 193 179
345 354 350 345 345 348 350 351 348 353 354 5 114 42 66 127 172 60 104 80 29 281 308 321 227 301 165 206 163 136 269 303 165 279 284 181 225 6 269 213 246 234 151 145 126 211 197 192 213 126 150 150 137 155
350 351 349 348 347 347 349 350 350 357 8 19 40 347 25 128 150 117 111 176 224 69 331 286 357 294 277 187 185 160 146 47 12 295 318 212 234 322 271 302 249 198 146 171 222 331 47 300 216 157 149 180 140 142
345 347 347 348 347 347 348 351 357 6 10 18 32 44 69 113 61 52 38 14 55 96 287 285 309 260 271 211 184 138 126 100 5 304 228 213 250 299 280 301 257 208 175 180 217 174 160 202 212 174 163 180 173 158
339 343 346 347 346 344 350 353 357 0 9 20 24 42 55 47 28 71 18 319 308 80 54 316 276 278 340 136 145 160 144 150 212 242 240 202 213 134 302 269 263 287 308 311 223 177 180 197 214 169 167 172 185 175
343 344 345 347 346 344 355 354 352 353 349 350 5 12 359 350 35 82 237 258 11 38 270 288 313 281 160 140 146 142 158 208 211 226 221 199 201 184 196 231 271 323 319 308 277 122 92 171 193 178 179 183 152 186
339 344 347 345 344 346 353 350 345 341 336 330 313 324 331 356 36 11 282 313 170 277 262 292 274 305 175 166 206 173 188 192 221 248 212 200 152 209 236 234 247 299 312 284 224 256 179 121 120 148 124 140 150 174
332 336 339 339 340 342 344 342 341 337 339 331 322 353 26 37 2 258 290 52 53 148 301 269 307 298 212 256 147 201 209 183 219 227 214 121 240 228 234 260 287 298 295 299 265 140 136 122 145 150 131 156 151 171
335 329 331 335 336 336 337 338 339 334 338 340 25 34 338 266 305 314 4 17 9 310 221 247 261 264 248 192 216 256 202 210 211 217 180 194 225 235 302 315 291 280 280 277 215 119 128 108 152 140 144 161 168 168
341 332 325 327 330 330 331 333 337 337 10 21 11 324 272 308 0 46 330 39 291 303 284 280 255 281 271 214 227 235 213 190 233 196 242 176 260 266 345 311 282 259 235 204 130 76 59 113 129 120 120 127 130 116
337 339 327 321 324 325 326 328 337 9 231 267 292 282 286 337 3 343 279 310 293 269 236 252 309 280 284 217 268 235 260 241 252 218 194 181 56 116 180 249 260 239 50 51 69 73 56 75 110 104 94 92 85 92
332 332 329 317 315 318 329 326 327 315 342 309 237 310 28 329 3 343 351 334 331 312 285 329 323 311 294 20 306 312 271 252 265 48 66 59 360 360 281 320 332 67 116 76 55 70 95 85 70 86 88 89 103 87
324 324 324 317 311 325 329 333 335 6 66 45 12 6 26 349 2 317 322 300 280 263 293 314 253 273 316 349 290 310 306 305 351 355 58 5 327 254 220 247 21 9 16 53 50 63 83 78 65 60 73 70 78 81
322 321 319 299 328 334 331 332 348 39 70 49 41 7 341 300 272 286 280 282 260 258 308 307 275 211 305 12 12 310 325 28 346 57 357 338 351 20 90 72 68 52 35 43 30 59 65 82 85 65 43 47 59 81
323 321 293 321 330 333 331 346 10 19 46 65 62 343 279 299 318 296 268 288 284 301 284 311 346 27 344 353 308 357 340 350 1 12 344 4 21 24 53 67 59 59 46 52 42 45 51 48 54 89 70 39 29 18
322 250 308 323 325 328 344 30 19 43 80 34 320 265 235 253 258 272 283 268 311 357 2 17 21 344 297 352 6 354 358 324 329 18 14 17 12 4 36 49 34 44 55 53 53 39 47 36 33 44 51 48 21 13
256 286 313 316 325 333 344 27 56 51 8 307 346 296 273 238 272 285 292 295 352 2 30 91 128 358 8 340 344 335 318 343 30 33 17 352 352 3 53 76 54 39 39 36 43 51 53 54 51 31 18 357 38 35
282 296 299 309 318 62 19 339 62 31 264 278 271 284 288 279 251 269 284 302 263 251 77 37 62 298 300 276 284 321 341 355 46 345 329 341 16 19 46 46 38 38 46 40 47 53 48 47 59 39 17 13 33 18
307 295 300 327 2 38 9 336 76 66 310 276 305 327 294 286 303 309 327 359 17 23 40 14 325 287 278 277 269 279 298 63 71 17 7 352 22 11 24 40 32 19 51 56 58 51 44 37 30 23 37 38 45 16
332 315 340 28 36 54 120 342 335 193 298 322 307 341 300 341 360 358 352 330 36 27 359 340 306 286 274 267 275 269 304 73 64 122 153 356 342 17 17 9 17 40 54 43 60 41 50 49 12 24 44 38 46 53
276 338 340 347 37 352 46 262 186 293 346 277 332 358 355 4 335 351 311 32 24 312 331 312 315 319 340 8 337 353 338 70 83 74 31 20 27 8 12 0 22 22 37 25 27 57 51 31 44 43 46 30 33 42
318 359 354 15 14 31 270 23 21 359 5 310 347 3 345 339 267 321 58 342 295 304 309 297 310 305 293 312 26 19 22 52 50 54 51 46 36 17 21 24 13 31 24 13 45 33 36 51 66 76 74 56 50 46
340 27 17 15 47 297 347 344 353 5 345 10 0 331 333 302 329 52 54 323 280 306 348 350 346 336 321 23 20 345 345 14 44 45 20 17 19 15 13 16 27 23 357 329 40 34 40 57 79 76 72 83 69 69
43 320 65 335 336 12 355 343 340 17 335 344 350 320 338 357 49 63 79 294 319 324 336 345 344 360 333 314 325 348 357 28 71 74 359 34 41 9 18 17 21 21 355 8 353 2 351 19 65 112 120 113 137 132
71 291 84 277 297 50 321 342 341 339 323 335 349 296 358 358 37 41 335 283 291 308 334 339 330 327 337 341 322 349 340 332 74 82 19 15 31 63 56 45 13 343 4 346 328 7 308 318 327 328 337 294 276 226
52 301 281 240 141 269 349 348 323 12 5 2 308 331 346 1 294 253 278 241 251 279 312 314 289 262 340 329 329 338 332 19 67 94 93 59 52 39 37 39 15 319 317 334 354 14 44 44 52 132 238 314 316 254
215 180 165 276 2 95 158 154 16 203 253 244 14 317 287 213 245 256 230 279 306 309 311 33 25 44 48 30 15 353 344 357 73 92 66 58 61 45 19 0 338 320 341 15 359 12 30 59 85 108 144 168 260 317
233 240 144 316 338 256 217 186 220 236 211 125 180 252 259 258 262 275 286 231 249 82 293 293 48 72 65 52 44 31 29 21 50 61 50 21 352 350 353 350 346 347 352 351 352 8 325 303 307 28 2 8 11 24
250 167 126 191 185 234 245 184 210 227 215 206 222 291 296 275 250 237 262 255 280 275 317 32 41 52 59 62 70 52 34 36 42 48 40 24 347 314 324 337 344 347 350 357 354 346 351 14 27 14 16 8 357 327
160 139 162 170 221 234 227 225 257 229 231 237 226 204 253 255 259 247 246 239 183 131 95 68 41 21 44 43 56 84 66 34 27 32 23 344 324 326 336 338 342 345 357 6 11 12 3 9 10 360 2 357 342 330
181 195 187 216 254 268 329 206 232 235 251 249 272 245 282 219 238 233 290 337 204 140 126 128 151 111 93 92 79 73 78 69 48 37 26 16 4 352 349 348 349 15 23 28 26 21 21 24 21 17 11 11 6 2
301 192 190 248 339 293 258 150 284 263 267 260 266 248 215 191 226 213 337 12 164 143 123 117 120 117 99 88 84 77 67 71 58 44 37 28 19 8 17 11 10 29 38 32 28 28 29 28 25 18 15 11 8 7